| time (UTC) | temp F | wind direction | speed knots | gust knots | rain 1hr in | rain 24hr in | rain mn in | humidity % | barometer mb |
| 20260508054936 | 38 | 152 | 0.9 | 0.9 | 0.00 | 0.00 | 0.00 | 92 | 1011.9 |
| 20260508054433 | 38 | 163 | 0.0 | 0.0 | 0.00 | 0.00 | 0.00 | 92 | 1011.8 |
| 20260508053930 | 38 | 150 | 0.0 | 0.0 | 0.00 | 0.00 | 0.00 | 92 | 1011.9 |
| 20260508053427 | 38 | 143 | 0.9 | 0.9 | 0.00 | 0.00 | 0.00 | 92 | 1012.0 |
| 20260508052925 | 38 | 160 | 0.0 | 0.0 | 0.00 | 0.00 | 0.00 | 93 | 1012.2 |
| 20260508052422 | 37 | 159 | 0.0 | 0.0 | 0.00 | 0.00 | 0.00 | 93 | 1012.1 |
| 20260508051918 | 37 | 159 | 0.0 | 0.9 | 0.00 | 0.00 | 0.00 | 93 | 1012.3 |
| 20260508051414 | 37 | 159 | 0.0 | 0.0 | 0.00 | 0.00 | 0.00 | 93 | 1012.1 |
| 20260508050910 | 37 | 150 | 0.0 | 0.9 | 0.00 | 0.00 | 0.00 | 94 | 1012.1 |
| 20260508050407 | 37 | 150 | 0.0 | 0.9 | 0.00 | 0.00 | 0.00 | 94 | 1012.1 |
| 20260508045903 | 37 | 149 | 0.9 | 0.9 | 0.00 | 0.00 | 0.00 | 94 | 1012.1 |
| 20260508045401 | 37 | 148 | 0.0 | 0.9 | 0.00 | 0.00 | 0.00 | 94 | 1012.2 |
| 20260508044858 | 37 | 138 | 0.9 | 0.9 | 0.00 | 0.00 | 0.00 | 94 | 1012.1 |
| 20260508044355 | 37 | 149 | 0.0 | 0.9 | 0.00 | 0.00 | 0.00 | 94 | 1012.0 |
| 20260508043850 | 36 | 145 | 0.9 | 0.9 | 0.00 | 0.00 | 0.00 | 94 | 1012.2 |
| 20260508043348 | 37 | 142 | 0.9 | 0.9 | 0.00 | 0.00 | 0.00 | 93 | 1012.0 |
| 20260508042844 | 37 | 153 | 0.9 | 0.9 | 0.00 | 0.00 | 0.00 | 93 | 1012.0 |
| 20260508042342 | 37 | 156 | 0.0 | 0.9 | 0.00 | 0.00 | 0.00 | 93 | 1012.2 |
| 20260508041839 | 37 | 150 | 0.9 | 0.9 | 0.00 | 0.00 | 0.00 | 93 | 1012.2 |
| 20260508041335 | 37 | 150 | 0.9 | 0.9 | 0.00 | 0.00 | 0.00 | 92 | 1011.8 |
| 20260508040832 | 37 | 155 | 0.0 | 0.9 | 0.00 | 0.00 | 0.00 | 92 | 1011.8 |
| 20260508040330 | 37 | 154 | 0.0 | 0.9 | 0.00 | 0.00 | 0.00 | 92 | 1011.9 |
| 20260508035827 | 37 | 156 | 0.0 | 0.9 | 0.00 | 0.00 | 0.00 | 92 | 1011.8 |
| 20260508035324 | 37 | 164 | 0.0 | 0.0 | 0.00 | 0.00 | 0.00 | 91 | 1012.1 |
| 20260508034821 | 37 | 147 | 0.0 | 0.9 | 0.00 | 0.00 | 0.00 | 91 | 1011.6 |
| 20260508034318 | 38 | 145 | 0.9 | 0.9 | 0.00 | 0.00 | 0.00 | 90 | 1011.9 |
| 20260508033814 | 38 | 147 | 0.9 | 0.9 | 0.00 | 0.00 | 0.00 | 90 | 1011.9 |
| 20260508033313 | 38 | 148 | 0.9 | 0.9 | 0.00 | 0.00 | 0.00 | 90 | 1012.1 |
| 20260508032810 | 38 | 147 | 0.9 | 0.9 | 0.00 | 0.00 | 0.00 | 89 | 1011.8 |
| 20260508032307 | 39 | 148 | 0.0 | 0.0 | 0.00 | 0.00 | 0.00 | 89 | 1011.8 |
| 20260508031804 | 39 | 152 | 0.0 | 0.0 | 0.00 | 0.00 | 0.00 | 88 | 1011.8 |
| 20260508031301 | 39 | 148 | 0.9 | 0.9 | 0.00 | 0.00 | 0.00 | 88 | 1011.8 |
| 20260508030757 | 39 | 136 | 0.9 | 0.9 | 0.00 | 0.00 | 0.00 | 88 | 1011.9 |
| 20260508030254 | 39 | 150 | 0.9 | 0.9 | 0.00 | 0.00 | 0.00 | 87 | 1011.8 |
| 20260508025751 | 40 | 142 | 0.9 | 0.9 | 0.00 | 0.00 | 0.00 | 87 | 1011.8 |
| 20260508025248 | 40 | 139 | 0.9 | 0.9 | 0.00 | 0.00 | 0.00 | 86 | 1011.9 |
| 20260508024744 | 40 | 147 | 0.0 | 0.9 | 0.00 | 0.00 | 0.00 | 86 | 1012.0 |
| 20260508024241 | 40 | 148 | 0.0 | 0.9 | 0.00 | 0.00 | 0.00 | 85 | 1011.8 |
| 20260508023738 | 41 | 148 | 0.0 | 0.0 | 0.00 | 0.00 | 0.00 | 84 | 1012.0 |
| 20260508023235 | 41 | 141 | 0.9 | 0.9 | 0.00 | 0.00 | 0.00 | 84 | 1011.8 |
| 20260508022731 | 41 | 154 | 0.9 | 0.9 | 0.00 | 0.00 | 0.00 | 83 | 1011.7 |
| 20260508022228 | 41 | 157 | 0.0 | 0.9 | 0.00 | 0.00 | 0.00 | 82 | 1011.8 |
| 20260508021724 | 42 | 150 | 0.0 | 0.0 | 0.00 | 0.00 | 0.00 | 82 | 1011.7 |
| 20260508021220 | 42 | 144 | 0.9 | 0.9 | 0.00 | 0.00 | 0.00 | 81 | 1011.5 |
| 20260508020717 | 42 | 141 | 0.9 | 0.9 | 0.00 | 0.00 | 0.00 | 80 | 1011.6 |
| 20260508020214 | 42 | 146 | 0.0 | 0.0 | 0.00 | 0.00 | 0.00 | 80 | 1011.6 |
| 20260508015712 | 43 | 147 | 0.0 | 0.9 | 0.00 | 0.00 | 0.00 | 80 | 1011.5 |
| 20260508015209 | 43 | 157 | 0.0 | 0.0 | 0.00 | 0.00 | 0.00 | 79 | 1011.4 |
| 20260508014705 | 43 | 158 | 0.0 | 0.0 | 0.00 | 0.00 | 0.00 | 79 | 1011.3 |
| 20260508014202 | 44 | 144 | 0.0 | 0.9 | 0.00 | 0.00 | 0.00 | 78 | 1011.5 |
| 20260508013658 | 44 | 163 | 0.0 | 0.0 | 0.00 | 0.00 | 0.00 | 77 | 1011.3 |
| 20260508013154 | 44 | 150 | 0.0 | 0.0 | 0.00 | 0.00 | 0.00 | 77 | 1011.2 |
| 20260508012652 | 45 | 165 | 0.0 | 0.0 | 0.00 | 0.00 | 0.00 | 76 | 1011.0 |
| 20260508012149 | 45 | 140 | 0.9 | 0.9 | 0.00 | 0.00 | 0.00 | 75 | 1011.1 |
| 20260508011648 | 46 | 159 | 0.0 | 0.0 | 0.00 | 0.00 | 0.00 | 74 | 1011.2 |
| 20260508011144 | 46 | 146 | 0.9 | 0.9 | 0.00 | 0.00 | 0.00 | 73 | 1010.7 |
| 20260508010641 | 47 | 160 | 0.0 | 0.9 | 0.00 | 0.00 | 0.00 | 71 | 1010.9 |
| 20260508010139 | 47 | 137 | 0.9 | 0.9 | 0.00 | 0.00 | 0.00 | 70 | 1010.9 |
| 20260508005636 | 48 | 161 | 0.0 | 0.9 | 0.00 | 0.00 | 0.00 | 69 | 1010.8 |
| 20260508005132 | 49 | 165 | 0.0 | 0.9 | 0.00 | 0.00 | 0.00 | 66 | 1010.7 |
| 20260508004628 | 49 | 154 | 0.9 | 0.9 | 0.00 | 0.00 | 0.00 | 64 | 1010.5 |
| 20260508004125 | 50 | 158 | 0.9 | 0.9 | 0.00 | 0.00 | 0.00 | 60 | 1010.7 |
| 20260508003621 | 50 | 166 | 0.0 | 0.0 | 0.00 | 0.00 | 0.00 | 60 | 1010.5 |
| 20260508003119 | 51 | 168 | 0.0 | 0.0 | 0.00 | 0.00 | 0.00 | 59 | 1010.2 |
| 20260508002615 | 52 | 186 | 0.0 | 0.0 | 0.00 | 0.00 | 0.00 | 54 | 1010.4 |
| 20260508002113 | 53 | 186 | 0.0 | 0.9 | 0.00 | 0.00 | 0.00 | 58 | 1010.2 |
| 20260508001608 | 53 | 153 | 0.9 | 0.9 | 0.00 | 0.00 | 0.00 | 48 | 1010.2 |
| 20260508001104 | 54 | 163 | 0.0 | 0.0 | 0.00 | 0.00 | 0.00 | 51 | 1010.2 |
| 20260508000600 | 55 | 158 | 0.0 | 0.9 | 0.00 | 0.00 | 0.00 | 46 | 1010.1 |
| 20260508000058 | 55 | 159 | 0.0 | 0.0 | 0.00 | 0.00 | 0.00 | 46 | 1010.0 |
| 20260507235554 | 55 | 102 | 1.7 | 2.6 | 0.00 | 0.00 | 0.00 | 49 | 1009.9 |
| 20260507235052 | 55 | 162 | 2.6 | 2.6 | 0.00 | 0.00 | 0.00 | 46 | 1009.9 |
| 20260507234548 | 55 | 174 | 1.7 | 2.6 | 0.00 | 0.00 | 0.00 | 45 | 1009.6 |
| 20260507234045 | 55 | 162 | 2.6 | 2.6 | 0.00 | 0.00 | 0.00 | 45 | 1009.6 |
| 20260507233542 | 56 | 162 | 4.3 | 6.1 | 0.00 | 0.00 | 0.00 | 45 | 1010.0 |
| 20260507233041 | 56 | 171 | 0.0 | 0.9 | 0.00 | 0.00 | 0.00 | 49 | 1009.7 |
| 20260507232536 | 56 | 80 | 3.5 | 5.2 | 0.00 | 0.00 | 0.00 | 44 | 1009.4 |
| 20260507232034 | 56 | 152 | 1.7 | 1.7 | 0.00 | 0.00 | 0.00 | 45 | 1009.5 |
| 20260507231530 | 57 | 67 | 1.7 | 1.7 | 0.00 | 0.00 | 0.00 | 45 | 1009.7 |
| 20260507231027 | 57 | 143 | 1.7 | 1.7 | 0.00 | 0.00 | 0.00 | 45 | 1009.5 |
| 20260507230524 | 57 | 108 | 1.7 | 1.7 | 0.00 | 0.00 | 0.00 | 44 | 1009.4 |
| 20260507230021 | 57 | 50 | 4.3 | 5.2 | 0.00 | 0.00 | 0.00 | 44 | 1009.5 |
| 20260507225515 | 57 | 163 | 3.5 | 4.3 | 0.00 | 0.00 | 0.00 | 44 | 1009.4 |
| 20260507225012 | 58 | 97 | 3.5 | 4.3 | 0.00 | 0.00 | 0.00 | 43 | 1009.4 |
| 20260507224508 | 59 | 161 | 2.6 | 2.6 | 0.00 | 0.00 | 0.00 | 43 | 1009.1 |
| 20260507224005 | 60 | 27 | 2.6 | 4.3 | 0.00 | 0.00 | 0.00 | 41 | 1009.0 |
| 20260507223500 | 60 | 153 | 0.9 | 0.9 | 0.00 | 0.00 | 0.00 | 40 | 1008.9 |
| 20260507222958 | 60 | 182 | 0.9 | 2.6 | 0.00 | 0.00 | 0.00 | 40 | 1009.0 |
| 20260507222455 | 59 | 175 | 0.0 | 0.9 | 0.00 | 0.00 | 0.00 | 42 | 1008.7 |
| 20260507221951 | 59 | 46 | 0.9 | 1.7 | 0.00 | 0.00 | 0.00 | 41 | 1009.1 |
| 20260507221448 | 59 | 121 | 0.9 | 0.9 | 0.00 | 0.00 | 0.00 | 41 | 1008.9 |
| 20260507220944 | 59 | 185 | 4.3 | 5.2 | 0.00 | 0.00 | 0.00 | 42 | 1008.9 |
| 20260507220442 | 60 | 164 | 3.5 | 4.3 | 0.00 | 0.00 | 0.00 | 41 | 1008.7 |
| 20260507215938 | 60 | 190 | 2.6 | 4.3 | 0.00 | 0.00 | 0.00 | 40 | 1008.5 |
| 20260507215435 | 60 | 142 | 1.7 | 1.7 | 0.00 | 0.00 | 0.00 | 39 | 1008.4 |
| 20260507214932 | 60 | 160 | 0.9 | 0.9 | 0.00 | 0.00 | 0.00 | 41 | 1008.5 |
| 20260507214430 | 59 | 161 | 0.0 | 0.9 | 0.00 | 0.00 | 0.00 | 40 | 1008.6 |
| 20260507213925 | 60 | 163 | 1.7 | 2.6 | 0.00 | 0.00 | 0.00 | 41 | 1008.5 |
| 20260507213422 | 60 | 172 | 0.9 | 0.9 | 0.00 | 0.00 | 0.00 | 40 | 1008.3 |
| 20260507212919 | 61 | 91 | 1.7 | 1.7 | 0.00 | 0.00 | 0.00 | 38 | 1008.3 |
| 20260507212415 | 61 | 176 | 1.7 | 1.7 | 0.00 | 0.00 | 0.00 | 39 | 1008.4 |
| 20260507211912 | 61 | 116 | 2.6 | 2.6 | 0.00 | 0.00 | 0.00 | 38 | 1008.3 |
| 20260507211408 | 60 | 175 | 0.9 | 0.9 | 0.00 | 0.00 | 0.00 | 40 | 1008.3 |
| 20260507210905 | 61 | 46 | 2.6 | 4.3 | 0.00 | 0.00 | 0.00 | 41 | 1008.2 |
| 20260507210402 | 60 | 61 | 2.6 | 4.3 | 0.00 | 0.00 | 0.00 | 40 | 1008.3 |
| 20260507205859 | 62 | 192 | 5.2 | 7.8 | 0.00 | 0.00 | 0.00 | 37 | 1008.2 |
| 20260507205356 | 61 | 73 | 1.7 | 4.3 | 0.00 | 0.00 | 0.00 | 40 | 1008.1 |
| 20260507204852 | 60 | 177 | 1.7 | 2.6 | 0.00 | 0.00 | 0.00 | 39 | 1008.2 |
| 20260507204349 | 61 | 323 | 3.5 | 4.3 | 0.00 | 0.00 | 0.00 | 38 | 1008.0 |
| 20260507203847 | 60 | 15 | 2.6 | 2.6 | 0.00 | 0.00 | 0.00 | 39 | 1008.1 |
| 20260507203344 | 61 | 136 | 0.9 | 0.9 | 0.00 | 0.00 | 0.00 | 40 | 1008.4 |
| 20260507202840 | 62 | 239 | 2.6 | 2.6 | 0.00 | 0.00 | 0.00 | 37 | 1008.2 |
| 20260507202337 | 61 | 127 | 0.9 | 1.7 | 0.00 | 0.00 | 0.00 | 39 | 1008.3 |
| 20260507201833 | 62 | 192 | 0.9 | 0.9 | 0.00 | 0.00 | 0.00 | 36 | 1008.0 |
| 20260507201328 | 62 | 191 | 2.6 | 4.3 | 0.00 | 0.00 | 0.00 | 38 | 1008.1 |
| 20260507200825 | 61 | 342 | 1.7 | 1.7 | 0.00 | 0.00 | 0.00 | 38 | 1008.3 |
| 20260507200321 | 61 | 193 | 3.5 | 4.3 | 0.00 | 0.00 | 0.00 | 37 | 1008.2 |
| 20260507195817 | 62 | 213 | 3.5 | 6.1 | 0.00 | 0.00 | 0.00 | 36 | 1008.4 |
| 20260507195315 | 60 | 172 | 4.3 | 5.2 | 0.00 | 0.00 | 0.00 | 36 | 1008.4 |
| 20260507194812 | 62 | 180 | 6.1 | 7.0 | 0.00 | 0.00 | 0.00 | 38 | 1008.5 |
| 20260507194308 | 62 | 179 | 0.9 | 0.9 | 0.00 | 0.00 | 0.00 | 34 | 1008.5 |
| 20260507193804 | 63 | 188 | 4.3 | 5.2 | 0.00 | 0.00 | 0.00 | 35 | 1008.5 |
| 20260507193302 | 63 | 163 | 2.6 | 2.6 | 0.00 | 0.00 | 0.00 | 36 | 1008.7 |
| 20260507192757 | 64 | 166 | 10.4 | 14.8 | 0.00 | 0.00 | 0.00 | 34 | 1008.7 |
| 20260507192254 | 64 | 90 | 2.6 | 2.6 | 0.00 | 0.00 | 0.00 | 36 | 1008.6 |
| 20260507191750 | 61 | 182 | 5.2 | 7.0 | 0.00 | 0.00 | 0.00 | 36 | 1008.4 |
| 20260507191247 | 62 | 288 | 4.3 | 6.1 | 0.00 | 0.00 | 0.00 | 35 | 1008.3 |
| 20260507190744 | 63 | 179 | 2.6 | 4.3 | 0.00 | 0.00 | 0.00 | 33 | 1008.6 |
| 20260507190243 | 62 | 183 | 0.9 | 1.7 | 0.00 | 0.00 | 0.00 | 38 | 1008.7 |
| 20260507185741 | 62 | 18 | 2.6 | 4.3 | 0.00 | 0.00 | 0.00 | 36 | 1008.5 |
| 20260507185237 | 60 | 163 | 4.3 | 6.1 | 0.00 | 0.00 | 0.00 | 40 | 1008.7 |
| 20260507184735 | 60 | 42 | 4.3 | 5.2 | 0.00 | 0.00 | 0.00 | 38 | 1008.4 |
| 20260507184233 | 60 | 175 | 0.0 | 0.0 | 0.00 | 0.00 | 0.00 | 40 | 1008.6 |
| 20260507183729 | 61 | 345 | 5.2 | 6.1 | 0.00 | 0.00 | 0.00 | 36 | 1008.9 |
| 20260507183226 | 62 | 185 | 2.6 | 2.6 | 0.00 | 0.00 | 0.00 | 37 | 1008.5 |
| 20260507182723 | 61 | 105 | 1.7 | 2.6 | 0.00 | 0.00 | 0.00 | 36 | 1008.7 |
| 20260507182218 | 61 | 181 | 3.5 | 4.3 | 0.00 | 0.00 | 0.00 | 37 | 1008.9 |
| 20260507181715 | 60 | 160 | 3.5 | 4.3 | 0.00 | 0.00 | 0.00 | 41 | 1008.7 |
| 20260507181212 | 62 | 269 | 2.6 | 2.6 | 0.00 | 0.00 | 0.00 | 37 | 1008.9 |
| 20260507180709 | 61 | 200 | 2.6 | 4.3 | 0.00 | 0.00 | 0.00 | 38 | 1008.8 |
| 20260507180206 | 61 | 190 | 2.6 | 5.2 | 0.00 | 0.00 | 0.00 | 38 | 1009.1 |
| 20260507175701 | 60 | 163 | 4.3 | 5.2 | 0.00 | 0.00 | 0.00 | 38 | 1008.9 |
| 20260507175158 | 60 | 157 | 0.9 | 0.9 | 0.00 | 0.00 | 0.00 | 40 | 1009.1 |
| 20260507174655 | 59 | 180 | 0.9 | 0.9 | 0.00 | 0.00 | 0.00 | 41 | 1009.1 |
| 20260507174154 | 59 | 161 | 2.6 | 5.2 | 0.00 | 0.00 | 0.00 | 42 | 1009.0 |
| 20260507173650 | 59 | 178 | 3.5 | 6.1 | 0.00 | 0.00 | 0.00 | 43 | 1009.3 |
| 20260507173147 | 59 | 137 | 4.3 | 7.0 | 0.00 | 0.00 | 0.00 | 41 | 1009.3 |
| 20260507172644 | 60 | 188 | 2.6 | 4.3 | 0.00 | 0.00 | 0.00 | 45 | 1009.2 |
| 20260507172141 | 61 | 168 | 0.9 | 1.7 | 0.00 | 0.00 | 0.00 | 42 | 1009.0 |
| 20260507171641 | 60 | 338 | 1.7 | 1.7 | 0.00 | 0.00 | 0.00 | 42 | 1009.2 |
| 20260507171139 | 60 | 191 | 6.1 | 7.0 | 0.00 | 0.00 | 0.00 | 41 | 1009.3 |
| 20260507170636 | 60 | 28 | 5.2 | 7.0 | 0.00 | 0.00 | 0.00 | 42 | 1009.4 |
| 20260507170133 | 61 | 174 | 1.7 | 1.7 | 0.00 | 0.00 | 0.00 | 42 | 1009.6 |
| 20260507165628 | 59 | 20 | 2.6 | 2.6 | 0.00 | 0.00 | 0.00 | 43 | 1009.4 |
| 20260507165125 | 57 | 44 | 0.9 | 1.7 | 0.00 | 0.00 | 0.00 | 44 | 1009.5 |
| 20260507164620 | 60 | 235 | 2.6 | 2.6 | 0.00 | 0.00 | 0.00 | 46 | 1009.6 |
| 20260507164118 | 57 | 122 | 0.9 | 1.7 | 0.00 | 0.00 | 0.00 | 46 | 1009.9 |
| 20260507163615 | 57 | 169 | 1.7 | 1.7 | 0.00 | 0.00 | 0.00 | 45 | 1009.9 |
| 20260507163113 | 58 | 114 | 2.6 | 4.3 | 0.00 | 0.00 | 0.00 | 45 | 1009.6 |
| 20260507162608 | 57 | 71 | 1.7 | 2.6 | 0.00 | 0.00 | 0.00 | 47 | 1009.9 |
| 20260507162105 | 57 | 176 | 1.7 | 2.6 | 0.00 | 0.00 | 0.00 | 50 | 1009.9 |
| 20260507161601 | 58 | 152 | 2.6 | 4.3 | 0.00 | 0.00 | 0.00 | 47 | 1009.7 |
| 20260507161058 | 58 | 10 | 2.6 | 4.3 | 0.00 | 0.00 | 0.00 | 47 | 1009.9 |
| 20260507160554 | 58 | 165 | 2.6 | 2.6 | 0.00 | 0.00 | 0.00 | 44 | 1010.0 |
| 20260507160050 | 57 | 118 | 1.7 | 1.7 | 0.00 | 0.00 | 0.00 | 43 | 1010.0 |
| 20260507155546 | 56 | 89 | 2.6 | 4.3 | 0.00 | 0.00 | 0.00 | 49 | 1010.0 |
| 20260507155043 | 57 | 105 | 2.6 | 2.6 | 0.00 | 0.00 | 0.00 | 46 | 1010.1 |
| 20260507154540 | 57 | 172 | 0.0 | 0.9 | 0.00 | 0.00 | 0.00 | 48 | 1010.2 |
| 20260507154037 | 57 | 148 | 2.6 | 2.6 | 0.00 | 0.00 | 0.00 | 48 | 1010.2 |
| 20260507153534 | 57 | 150 | 0.9 | 1.7 | 0.00 | 0.00 | 0.00 | 47 | 1010.3 |
| 20260507153030 | 56 | 176 | 0.9 | 1.7 | 0.00 | 0.00 | 0.00 | 51 | 1010.0 |
| 20260507152526 | 57 | 27 | 2.6 | 4.3 | 0.00 | 0.00 | 0.00 | 48 | 1010.2 |
| 20260507152022 | 57 | 120 | 1.7 | 1.7 | 0.00 | 0.00 | 0.00 | 48 | 1010.1 |
| 20260507151519 | 58 | 193 | 2.6 | 4.3 | 0.00 | 0.00 | 0.00 | 51 | 1010.1 |
| 20260507151016 | 58 | 211 | 2.6 | 4.3 | 0.00 | 0.00 | 0.00 | 48 | 1010.3 |
| 20260507150513 | 57 | 188 | 2.6 | 2.6 | 0.00 | 0.00 | 0.00 | 48 | 1010.2 |
| 20260507150009 | 56 | 182 | 0.9 | 0.9 | 0.00 | 0.00 | 0.00 | 51 | 1010.6 |
| 20260507145504 | 55 | 159 | 0.9 | 0.9 | 0.00 | 0.00 | 0.00 | 51 | 1010.7 |
| 20260507145002 | 56 | 86 | 4.3 | 5.2 | 0.00 | 0.00 | 0.00 | 51 | 1010.6 |
| 20260507144459 | 55 | 182 | 2.6 | 2.6 | 0.00 | 0.00 | 0.00 | 53 | 1010.5 |
| 20260507143955 | 55 | 179 | 4.3 | 6.1 | 0.00 | 0.00 | 0.00 | 55 | 1010.8 |
| 20260507143453 | 54 | 176 | 4.3 | 5.2 | 0.00 | 0.00 | 0.00 | 65 | 1010.7 |
| 20260507142950 | 54 | 210 | 2.6 | 4.3 | 0.00 | 0.00 | 0.00 | 63 | 1010.8 |
| 20260507142445 | 53 | 182 | 1.7 | 1.7 | 0.00 | 0.00 | 0.00 | 65 | 1010.8 |
| 20260507141943 | 54 | 172 | 1.7 | 2.6 | 0.00 | 0.00 | 0.00 | 64 | 1011.0 |
| 20260507141438 | 53 | 177 | 0.0 | 0.9 | 0.00 | 0.00 | 0.00 | 67 | 1011.1 |
| 20260507140936 | 53 | 207 | 2.6 | 2.6 | 0.00 | 0.00 | 0.00 | 65 | 1011.1 |
| 20260507140432 | 53 | 188 | 1.7 | 1.7 | 0.00 | 0.00 | 0.00 | 67 | 1011.0 |
| 20260507135930 | 52 | 162 | 0.0 | 0.0 | 0.00 | 0.00 | 0.00 | 69 | 1011.4 |
| 20260507135426 | 52 | 183 | 0.0 | 0.0 | 0.00 | 0.00 | 0.00 | 67 | 1011.4 |
| 20260507134924 | 51 | 184 | 0.0 | 0.0 | 0.00 | 0.00 | 0.00 | 70 | 1011.4 |
| 20260507134420 | 51 | 170 | 0.0 | 0.0 | 0.00 | 0.00 | 0.00 | 72 | 1011.5 |
| 20260507133916 | 50 | 185 | 0.0 | 0.0 | 0.00 | 0.00 | 0.00 | 72 | 1011.4 |
| 20260507133412 | 50 | 180 | 0.0 | 0.0 | 0.00 | 0.00 | 0.00 | 74 | 1011.5 |
| 20260507132911 | 49 | 171 | 0.0 | 0.0 | 0.00 | 0.00 | 0.00 | 77 | 1011.4 |
| 20260507132407 | 48 | 168 | 0.0 | 0.0 | 0.00 | 0.00 | 0.00 | 81 | 1011.6 |
| 20260507131905 | 47 | 175 | 0.0 | 0.0 | 0.00 | 0.00 | 0.00 | 84 | 1011.5 |
| 20260507131401 | 46 | 172 | 0.0 | 0.0 | 0.00 | 0.00 | 0.00 | 87 | 1011.7 |
| 20260507130858 | 45 | 174 | 0.0 | 0.0 | 0.00 | 0.00 | 0.00 | 89 | 1011.6 |
| 20260507130354 | 44 | 161 | 0.0 | 0.0 | 0.00 | 0.00 | 0.00 | 91 | 1011.6 |
| 20260507125854 | 43 | 165 | 0.0 | 0.0 | 0.00 | 0.00 | 0.00 | 94 | 1011.9 |
| 20260507125350 | 42 | 168 | 0.0 | 0.0 | 0.00 | 0.00 | 0.00 | 96 | 1011.8 |
| 20260507124848 | 42 | 166 | 0.0 | 0.0 | 0.00 | 0.00 | 0.00 | 98 | 1011.9 |
| 20260507124343 | 41 | 168 | 0.0 | 0.0 | 0.00 | 0.00 | 0.00 | 99 | 1011.8 |
| 20260507123843 | 41 | 168 | 0.0 | 0.0 | 0.00 | 0.00 | 0.00 | 99 | 1011.7 |
| 20260507123339 | 40 | 158 | 0.0 | 0.0 | 0.00 | 0.00 | 0.00 | 99 | 1011.8 |
| 20260507122836 | 40 | 158 | 0.0 | 0.0 | 0.00 | 0.00 | 0.00 | 99 | 1011.9 |
| 20260507122331 | 39 | 156 | 0.0 | 0.0 | 0.00 | 0.00 | 0.00 | 99 | 1011.7 |
| 20260507121828 | 39 | 156 | 0.0 | 0.0 | 0.00 | 0.00 | 0.00 | 99 | 1011.8 |
| 20260507121323 | 38 | 156 | 0.0 | 0.0 | 0.00 | 0.00 | 0.00 | 99 | 1011.6 |
| 20260507120820 | 37 | 155 | 0.0 | 0.0 | 0.00 | 0.00 | 0.00 | 99 | 1011.8 |
| 20260507120316 | 37 | 155 | 0.0 | 0.0 | 0.00 | 0.00 | 0.00 | 99 | 1011.7 |
| 20260507115813 | 36 | 155 | 0.0 | 0.0 | 0.00 | 0.00 | 0.00 | 99 | 1011.6 |
| 20260507115308 | 36 | 155 | 0.0 | 0.0 | 0.00 | 0.00 | 0.00 | 99 | 1011.8 |
| 20260507114804 | 35 | 155 | 0.0 | 0.0 | 0.00 | 0.00 | 0.00 | 99 | 1011.7 |
| 20260507114302 | 35 | 155 | 0.0 | 0.0 | 0.00 | 0.00 | 0.00 | 99 | 1011.8 |
| 20260507113759 | 35 | 155 | 0.0 | 0.0 | 0.00 | 0.00 | 0.00 | 99 | 1011.7 |
| 20260507113256 | 34 | 155 | 0.0 | 0.0 | 0.00 | 0.00 | 0.00 | 99 | 1011.8 |
| 20260507112754 | 34 | 155 | 0.0 | 0.0 | 0.00 | 0.00 | 0.00 | 99 | 1011.8 |
| 20260507112250 | 34 | 155 | 0.0 | 0.0 | 0.00 | 0.00 | 0.00 | 99 | 1011.7 |
| 20260507111748 | 33 | 155 | 0.0 | 0.0 | 0.00 | 0.00 | 0.00 | 99 | 1011.7 |
| 20260507111244 | 33 | 155 | 0.0 | 0.0 | 0.00 | 0.00 | 0.00 | 99 | 1011.5 |
| 20260507110741 | 33 | 155 | 0.0 | 0.0 | 0.00 | 0.00 | 0.00 | 99 | 1011.6 |
| 20260507110237 | 33 | 155 | 0.0 | 0.0 | 0.00 | 0.00 | 0.00 | 99 | 1011.4 |
| 20260507105734 | 33 | 155 | 0.0 | 0.0 | 0.00 | 0.00 | 0.00 | 99 | 1011.6 |
| 20260507105230 | 33 | 155 | 0.0 | 0.0 | 0.00 | 0.00 | 0.00 | 99 | 1011.4 |
| 20260507104727 | 33 | 155 | 0.0 | 0.0 | 0.00 | 0.00 | 0.00 | 99 | 1011.4 |
| 20260507104224 | 33 | 155 | 0.0 | 0.0 | 0.00 | 0.00 | 0.00 | 99 | 1011.5 |
| 20260507103720 | 33 | 155 | 0.0 | 0.0 | 0.00 | 0.00 | 0.00 | 99 | 1011.6 |
| 20260507103217 | 33 | 155 | 0.0 | 0.0 | 0.00 | 0.00 | 0.00 | 99 | 1011.4 |
| 20260507102713 | 33 | 155 | 0.0 | 0.0 | 0.00 | 0.00 | 0.00 | 99 | 1011.5 |
| 20260507102210 | 33 | 155 | 0.0 | 0.0 | 0.00 | 0.00 | 0.00 | 99 | 1011.5 |
| 20260507101706 | 33 | 155 | 0.0 | 0.0 | 0.00 | 0.00 | 0.00 | 99 | 1011.5 |
| 20260507101201 | 33 | 155 | 0.0 | 0.0 | 0.00 | 0.00 | 0.00 | 99 | 1011.5 |
| 20260507100659 | 33 | 155 | 0.0 | 0.0 | 0.00 | 0.00 | 0.00 | 99 | 1011.4 |
| 20260507100157 | 33 | 155 | 0.0 | 0.0 | 0.00 | 0.00 | 0.00 | 99 | 1011.4 |
| 20260507095655 | 34 | 155 | 0.0 | 0.0 | 0.00 | 0.00 | 0.00 | 99 | 1011.3 |
| 20260507095151 | 34 | 155 | 0.0 | 0.0 | 0.00 | 0.00 | 0.00 | 99 | 1011.4 |
| 20260507094648 | 34 | 155 | 0.0 | 0.0 | 0.00 | 0.00 | 0.00 | 98 | 1011.2 |
| 20260507094144 | 34 | 154 | 0.0 | 0.0 | 0.00 | 0.00 | 0.00 | 98 | 1011.2 |
| 20260507093642 | 34 | 154 | 0.0 | 0.0 | 0.00 | 0.00 | 0.00 | 98 | 1011.3 |
| 20260507093141 | 34 | 155 | 0.0 | 0.0 | 0.00 | 0.00 | 0.00 | 98 | 1011.3 |
| 20260507092637 | 34 | 155 | 0.0 | 0.0 | 0.00 | 0.00 | 0.00 | 98 | 1011.3 |
| 20260507092133 | 34 | 155 | 0.0 | 0.0 | 0.00 | 0.00 | 0.00 | 98 | 1011.7 |
| 20260507091630 | 34 | 154 | 0.0 | 0.0 | 0.00 | 0.00 | 0.00 | 98 | 1011.5 |
| 20260507091126 | 35 | 154 | 0.0 | 0.0 | 0.00 | 0.00 | 0.00 | 98 | 1011.3 |
| 20260507090622 | 35 | 154 | 0.0 | 0.0 | 0.00 | 0.00 | 0.00 | 98 | 1011.5 |
| 20260507090119 | 35 | 154 | 0.0 | 0.0 | 0.00 | 0.00 | 0.00 | 98 | 1011.2 |
| 20260507085616 | 35 | 154 | 0.0 | 0.0 | 0.00 | 0.00 | 0.00 | 98 | 1011.3 |
| 20260507085112 | 35 | 154 | 0.0 | 0.0 | 0.00 | 0.00 | 0.00 | 98 | 1011.4 |
| 20260507084610 | 35 | 154 | 0.0 | 0.0 | 0.00 | 0.00 | 0.00 | 98 | 1011.5 |
| 20260507084106 | 35 | 154 | 0.0 | 0.0 | 0.00 | 0.00 | 0.00 | 98 | 1011.2 |
| 20260507083603 | 35 | 154 | 0.0 | 0.0 | 0.00 | 0.00 | 0.00 | 98 | 1011.4 |
| 20260507083100 | 36 | 154 | 0.0 | 0.0 | 0.00 | 0.00 | 0.00 | 98 | 1011.7 |
| 20260507082555 | 36 | 154 | 0.0 | 0.0 | 0.00 | 0.00 | 0.00 | 98 | 1011.4 |
| 20260507082052 | 36 | 155 | 0.0 | 0.0 | 0.00 | 0.00 | 0.00 | 98 | 1011.3 |
| 20260507081548 | 36 | 154 | 0.0 | 0.0 | 0.00 | 0.00 | 0.00 | 98 | 1011.4 |
| 20260507081046 | 36 | 155 | 0.0 | 0.0 | 0.00 | 0.00 | 0.00 | 98 | 1011.4 |
| 20260507080541 | 37 | 155 | 0.0 | 0.0 | 0.00 | 0.00 | 0.00 | 98 | 1011.4 |
| 20260507080038 | 37 | 154 | 0.0 | 0.0 | 0.00 | 0.00 | 0.00 | 97 | 1011.4 |
| 20260507075533 | 37 | 153 | 0.0 | 0.0 | 0.00 | 0.00 | 0.00 | 97 | 1011.5 |
| 20260507075030 | 37 | 154 | 0.0 | 0.0 | 0.00 | 0.00 | 0.00 | 97 | 1011.4 |
| 20260507074526 | 37 | 154 | 0.0 | 0.0 | 0.00 | 0.00 | 0.00 | 97 | 1011.4 |
| 20260507074025 | 37 | 154 | 0.0 | 0.0 | 0.00 | 0.00 | 0.00 | 97 | 1011.3 |
| 20260507073521 | 37 | 154 | 0.0 | 0.0 | 0.00 | 0.00 | 0.00 | 97 | 1011.4 |
| 20260507073018 | 37 | 145 | 0.0 | 0.0 | 0.00 | 0.00 | 0.00 | 97 | 1011.4 |
| 20260507072515 | 38 | 149 | 0.0 | 0.0 | 0.00 | 0.00 | 0.00 | 97 | 1011.5 |
| 20260507072012 | 38 | 154 | 0.0 | 0.0 | 0.00 | 0.00 | 0.00 | 96 | 1011.3 |
| 20260507071509 | 38 | 154 | 0.0 | 0.0 | 0.00 | 0.00 | 0.00 | 96 | 1011.5 |
| 20260507071006 | 38 | 153 | 0.0 | 0.0 | 0.00 | 0.00 | 0.00 | 96 | 1011.5 |
| 20260507070503 | 39 | 154 | 0.0 | 0.0 | 0.00 | 0.00 | 0.00 | 96 | 1011.6 |
| 20260507070000 | 39 | 152 | 0.0 | 0.0 | 0.00 | 0.00 | 0.00 | 96 | 1011.5 |
| 20260507065456 | 39 | 154 | 0.0 | 0.0 | 0.00 | 0.00 | 0.00 | 95 | 1011.8 |
| 20260507064954 | 39 | 154 | 0.0 | 0.0 | 0.00 | 0.00 | 0.00 | 95 | 1011.6 |
| 20260507064452 | 39 | 154 | 0.0 | 0.0 | 0.00 | 0.00 | 0.00 | 95 | 1011.6 |
| 20260507063949 | 40 | 152 | 0.0 | 0.0 | 0.00 | 0.00 | 0.00 | 94 | 1011.8 |
| 20260507063446 | 40 | 154 | 0.0 | 0.0 | 0.00 | 0.00 | 0.00 | 94 | 1011.6 |
| 20260507062943 | 40 | 154 | 0.0 | 0.0 | 0.00 | 0.00 | 0.00 | 94 | 1011.6 |
| 20260507062441 | 40 | 155 | 0.0 | 0.0 | 0.00 | 0.00 | 0.00 | 94 | 1011.8 |
| 20260507061938 | 41 | 155 | 0.0 | 0.0 | 0.00 | 0.00 | 0.00 | 93 | 1011.6 |
| 20260507061436 | 41 | 155 | 0.0 | 0.0 | 0.00 | 0.00 | 0.00 | 93 | 1011.7 |
| 20260507060934 | 41 | 155 | 0.0 | 0.0 | 0.00 | 0.00 | 0.00 | 93 | 1011.6 |
| 20260507060430 | 41 | 146 | 0.0 | 0.0 | 0.00 | 0.00 | 0.00 | 92 | 1011.9 |
| 20260507055927 | 41 | 142 | 0.0 | 0.0 | 0.00 | 0.00 | 0.00 | 92 | 1011.9 |
| 20260507055423 | 42 | 156 | 0.0 | 0.0 | 0.00 | 0.00 | 0.00 | 92 | 1011.7 |